Tracking 19796 objects as of 19-Jul-2019
HD Live streaming from Space Station
objects crossing your sky now

THORAD DELTA 1 DEB

Track THORAD DELTA 1 DEB now!
10-day predictions


NORAD ID: 42595
Int'l Code: 1974-089FL
Perigee: 1,453.7 km
Apogee: 1,520.5 km
Inclination: 101.6 °
Period: 115.5 minutes
Semi major axis: 7858 km
RCS: Unknown
Launch date: November 15, 1974
Source: United States (US)
Launch site: AIR FORCE WESTERN TEST RANGE (AFWTR)

Note: This is SATELLITE DEBRIS
aabbcc
Your satellite tracking list
Your tracking list is empty




NASA's NSSDC Master Catalog

Two Line Element Set (TLE):
1 42595U 74089FL  19199.53390303  .00000113  00000-0  10734-2 0  9990
2 42595 101.5814 230.5481 0042509 105.6060 254.9706 12.46308762748997
Source of the keplerian elements: AFSPC